Chattanooga, TN

10:56 AM EST on February 08, 2016 (GMT -0500)
Lovell

Weather History for KCHA - August, 2013

Change the Weather History Date:

Tuesday, August 20, 2013

  Actual Average Record
Temperature  
Mean Temperature 78 °F 79 °F  
Max Temperature 85 °F 90 °F 102 °F (1983)
Min Temperature 70 °F 69 °F 56 °F (1940)
Cooling Degree Days 13 14  
Month to date cooling degree days 249 298  
Year to date cooling degree days 1229 1302  
Since 1 June cooling degree days 1053 1106  
Growing Degree Days 27 (Base 50)    
Moisture  
Dew Point 70 °F    
Average Humidity 77    
Maximum Humidity 93    
Minimum Humidity 61    
Precipitation  
Precipitation 0.00 in 0.11 in 1.71 in (1994)
Month to date precipitation 5.40 2.34  
Year to date precipitation 53.03 34.12  
Snow  
Snow 0.00 in - - ()
Month to date snowfall 0.0  
Since 1 June snowfall 0.0  
Snow Depth 0.00 in    
Sea Level Pressure  
Sea Level Pressure 30.13 in    
Wind  
Wind Speed 2 mph (SSE)    
Max Wind Speed 9 mph    
Max Gust Speed 13 mph    
Visibility 10 miles    
Events      
T = Trace of Precipitation, MM = Missing Value Source: NWS Daily Summary

Daily Weather History Graph

Daily Weather History Graph

Search for Another Location

Airport or City:

Trip Planner

Search our weather history database for the weather conditions in past years. The results will help you decide how hot, cold, wet, or windy it might be!

Date:

Astronomy

Aug. 20, 2013 Rise Set
Actual Time 7:04 AM EDT 8:22 PM EDT
Civil Twilight 6:38 AM EDT 8:49 PM EDT
Nautical Twilight 6:06 AM EDT 9:20 PM EDT
Astronomical Twilight 5:33 AM EDT 9:53 PM EDT
Moon 7:56 PM EDT (8/20) 6:32 AM EDT (8/20)
Length of Visible Light 14h 11m
Length of Day
13h 18m
Full, 100% of the Moon is Illuminated
Aug 20
Full
Aug 20
Full
Aug 28
Last Quarter
Sep 5
New
Sep 12
First Quarter

Hourly Weather History & Observations

Time (EDT) Temp. Heat Index Dew Point Humidity Pressure Visibility Wind Dir Wind Speed Gust Speed Precip Events Conditions
12:53 AM 73.9 °F - 70.0 °F 87% 30.11 in 10.0 mi Calm Calm - N/A   Scattered Clouds
1:53 AM 73.9 °F - 69.1 °F 85% 30.10 in 10.0 mi SSE 3.5 mph - N/A   Partly Cloudy
2:53 AM 73.0 °F - 69.1 °F 87% 30.10 in 10.0 mi Calm Calm - N/A   Partly Cloudy
3:53 AM 72.0 °F - 68.0 °F 87% 30.09 in 10.0 mi Calm Calm - N/A   Scattered Clouds
4:53 AM 71.1 °F - 68.0 °F 90% 30.09 in 10.0 mi Calm Calm - N/A   Mostly Cloudy
5:43 AM 71.6 °F - 69.8 °F 94% 30.11 in 10.0 mi Calm Calm - N/A   Mostly Cloudy
5:53 AM 71.1 °F - 69.1 °F 93% 30.09 in 10.0 mi Calm Calm - N/A   Mostly Cloudy
6:53 AM 71.1 °F - 68.0 °F 90% 30.11 in 10.0 mi Calm Calm - N/A   Mostly Cloudy
7:45 AM 71.6 °F - 69.8 °F 94% 30.14 in 10.0 mi Calm Calm - N/A   Mostly Cloudy
7:53 AM 72.0 °F - 68.0 °F 87% 30.12 in 10.0 mi Calm Calm - N/A   Mostly Cloudy
8:46 AM 73.4 °F - 69.8 °F 88% 30.15 in 10.0 mi Calm Calm - N/A   Mostly Cloudy
8:53 AM 75.0 °F - 69.1 °F 82% 30.13 in 10.0 mi NNE 3.5 mph - N/A   Mostly Cloudy
9:53 AM 77.0 °F - 69.1 °F 76% 30.15 in 10.0 mi Calm Calm - N/A   Mostly Cloudy
10:51 AM 77.0 °F - 69.8 °F 78% 30.18 in 10.0 mi Calm Calm - N/A   Mostly Cloudy
10:53 AM 78.1 °F - 69.1 °F 74% 30.17 in 10.0 mi Calm Calm - N/A   Mostly Cloudy
11:53 AM 78.1 °F - 70.0 °F 76% 30.17 in 10.0 mi Calm Calm - N/A   Overcast
12:31 PM 78.8 °F - 69.8 °F 74% 30.19 in 10.0 mi Variable 3.5 mph - N/A   Mostly Cloudy
12:53 PM 79.0 °F - 69.1 °F 72% 30.17 in 10.0 mi Calm Calm - N/A   Mostly Cloudy
1:53 PM 82.0 °F 86.3 °F 71.1 °F 69% 30.14 in 10.0 mi Variable 5.8 mph - N/A   Mostly Cloudy
2:53 PM 84.0 °F 88.4 °F 70.0 °F 63% 30.12 in 10.0 mi Variable 4.6 mph - N/A   Mostly Cloudy
3:53 PM 84.9 °F 89.4 °F 70.0 °F 61% 30.09 in 10.0 mi South 4.6 mph - N/A   Mostly Cloudy
4:53 PM 84.0 °F 87.8 °F 69.1 °F 61% 30.08 in 10.0 mi SSW 5.8 mph - N/A   Mostly Cloudy
5:53 PM 84.0 °F 88.4 °F 70.0 °F 63% 30.08 in 10.0 mi SSE 5.8 mph - N/A   Mostly Cloudy
6:53 PM 82.0 °F 86.3 °F 71.1 °F 69% 30.09 in 10.0 mi South 4.6 mph - N/A   Mostly Cloudy
7:53 PM 81.0 °F 84.9 °F 71.1 °F 72% 30.10 in 10.0 mi Calm Calm - N/A   Mostly Cloudy
8:53 PM 79.0 °F - 72.0 °F 79% 30.10 in 10.0 mi Calm Calm - N/A   Mostly Cloudy
9:53 PM 78.1 °F - 71.1 °F 79% 30.12 in 10.0 mi SE 3.5 mph - N/A   Scattered Clouds
10:53 PM 75.9 °F - 71.1 °F 85% 30.14 in 10.0 mi Calm Calm - N/A   Scattered Clouds
11:13 PM 75.2 °F - 71.6 °F 89% 30.17 in 10.0 mi Calm Calm - N/A   Mostly Cloudy
11:42 PM 75.2 °F - 71.6 °F 89% 30.17 in 10.0 mi Calm Calm - N/A   Mostly Cloudy
11:53 PM 75.9 °F - 72.0 °F 87% 30.15 in 10.0 mi Calm Calm - N/A   Mostly Cloudy